Smith Lake Weather Center

Moon Phase Calendar



Smith Lake Water Level
Online Cameras

 


      

Current Conditions in Good Hope
5/30/2024 6:05:18 PM

80°F
Feels Like 82
Clouds
Humidity
57%
Pressure
30.03"
Wind
8.7 mph (NNE)
Dew Point
64°F
UV Index
1/10 (Low)
Visibility
6 mi

Hourly Forecast

Date & Time Thu, May 30
6:00 PM
Thu, May 30
7:00 PM
Thu, May 30
8:00 PM
Thu, May 30
9:00 PM
Thu, May 30
10:00 PM
Thu, May 30
11:00 PM
Fri, May 31
12:00 AM
Fri, May 31
1:00 AM
Fri, May 31
2:00 AM
Fri, May 31
3:00 AM
Fri, May 31
4:00 AM
Fri, May 31
5:00 AM
Fri, May 31
6:00 AM
Fri, May 31
7:00 AM
Fri, May 31
8:00 AM
Fri, May 31
9:00 AM
Fri, May 31
10:00 AM
Fri, May 31
11:00 AM
Fri, May 31
12:00 PM
Fri, May 31
1:00 PM
Fri, May 31
2:00 PM
Fri, May 31
3:00 PM
Fri, May 31
4:00 PM
Fri, May 31
5:00 PM
Fri, May 31
6:00 PM
Fri, May 31
7:00 PM
Fri, May 31
8:00 PM
Fri, May 31
9:00 PM
Fri, May 31
10:00 PM
Fri, May 31
11:00 PM
Sat, Jun 1
12:00 AM
Sat, Jun 1
1:00 AM
Sat, Jun 1
2:00 AM
Sat, Jun 1
3:00 AM
Sat, Jun 1
4:00 AM
Sat, Jun 1
5:00 AM
Sat, Jun 1
6:00 AM
Sat, Jun 1
7:00 AM
Sat, Jun 1
8:00 AM
Sat, Jun 1
9:00 AM
Sat, Jun 1
10:00 AM
Sat, Jun 1
11:00 AM
Sat, Jun 1
12:00 PM
Sat, Jun 1
1:00 PM
Sat, Jun 1
2:00 PM
Sat, Jun 1
3:00 PM
Sat, Jun 1
4:00 PM
Sat, Jun 1
5:00 PM
Condition
Clouds

Clouds

Clouds

Clouds

Clouds

Clouds

Clouds

Clouds

Clouds

Clouds

Clouds

Clouds

Clouds

Clouds

Clouds

Clouds

Clouds

Clouds

Clouds

Clouds

Clouds

Clouds

Clouds

Clouds

Rain

Clouds

Clouds

Clouds

Rain

Rain

Rain

Rain

Rain

Rain

Rain

Clouds

Clouds

Clouds

Clouds

Clouds

Rain

Rain

Clouds

Rain

Rain

Rain

Rain

Rain
Temperature 80°F78°F75°F71°F67°F63°F62°F61°F60°F60°F61°F61°F61°F63°F67°F71°F75°F79°F81°F84°F84°F83°F83°F83°F75°F73°F72°F71°F72°F67°F67°F67°F67°F66°F66°F65°F64°F64°F65°F69°F69°F67°F75°F79°F75°F74°F74°F72°F
Feels Like 82°F79°F75°F71°F67°F62°F61°F60°F60°F60°F60°F60°F60°F62°F66°F70°F75°F79°F81°F83°F83°F83°F83°F84°F76°F74°F72°F72°F72°F68°F68°F68°F68°F67°F66°F66°F65°F65°F66°F69°F70°F68°F76°F79°F76°F76°F75°F73°F
Cloudiness 26%25%18%22%16%11%17%29%34%69%80%84%87%89%100%100%100%98%99%99%100%100%100%100%100%100%100%100%100%100%100%100%100%100%100%100%100%100%99%99%99%99%99%97%100%97%99%99%
Visibility 6 mi6 mi6 mi6 mi6 mi6 mi6 mi6 mi6 mi6 mi6 mi6 mi6 mi6 mi6 mi6 mi6 mi6 mi6 mi6 mi6 mi6 mi6 mi6 mi6 mi6 mi6 mi6 mi6 mi5 mi6 mi6 mi6 mi6 mi6 mi6 mi6 mi6 mi6 mi6 mi6 mi6 mi6 mi5 mi6 mi5 mi6 mi1 mi
Precipitation 0%0%0%0%0%0%0%0%0%0%0%0%0%0%0%0%0%0%0%0%0%0%0%0%20%7%26%10%76%100%100%100%100%100%100%80%80%80%0%0%72%66%47%89%100%100%100%100%
Humidity 57%59%65%69%70%72%73%74%75%74%73%71%74%74%64%55%48%44%42%40%40%43%50%52%73%75%77%76%75%96%97%98%97%97%96%93%94%94%92%81%88%93%75%71%88%92%91%94%
Dew Point 64°F63°F62°F60°F57°F53°F53°F53°F52°F52°F52°F52°F52°F54°F54°F54°F54°F55°F56°F57°F57°F59°F62°F63°F66°F65°F64°F63°F63°F65°F66°F66°F66°F65°F64°F63°F62°F62°F63°F62°F65°F65°F67°F68°F71°F72°F71°F70°F
Pressure 30.03"30.03"30.03"30.06"30.09"30.09"30.09"30.09"30.06"30.06"30.06"30.09"30.09"30.12"30.15"30.15"30.12"30.09"30.12"30.09"30.06"30.03"30.03"30.03"30.03"30.03"30.06"30.06"30.06"30.09"30.09"30.09"30.06"30.09"30.06"30.06"30.09"30.12"30.12"30.12"30.12"30.09"30.09"30.06"30.06"30.03"30.03"29.97"
Wind Speed 8.7 mph6.7 mph5.4 mph5.1 mph5.2 mph5.4 mph4.8 mph4.3 mph3.7 mph4 mph5.1 mph5 mph5.2 mph5.2 mph6.9 mph7.5 mph8.4 mph8.6 mph7.5 mph7.4 mph7.1 mph6.2 mph5.5 mph5.2 mph6.7 mph8.4 mph6.9 mph8 mph6.2 mph6 mph3.5 mph5.3 mph7.7 mph10.2 mph11.6 mph9.6 mph8.6 mph8.6 mph8.3 mph11.1 mph9.2 mph8.6 mph12.7 mph11.6 mph11.2 mph11.2 mph9.5 mph8.3 mph
Wind
Direction
26°
NNE
26°
NNE
20°
NNE
31°
NNE
47°
NE
52°
NE
64°
ENE
55°
NE
84°
E
87°
E
85°
E
84°
E
88°
E
91°
E
107°
ESE
109°
ESE
122°
ESE
128°
SE
132°
SE
138°
SE
135°
SE
117°
ESE
82°
E
67°
ENE
66°
ENE
81°
E
79°
E
98°
E
148°
SSE
237°
WSW
269°
W
100°
E
111°
ESE
129°
SE
126°
SE
129°
SE
131°
SE
145°
SE
146°
SE
145°
SE
152°
SSE
156°
SSE
175°
S
185°
S
184°
S
162°
SSE
164°
SSE
160°
SSE

Daily Forecast

Date High Low Precip. Humidity
Today
May 30

Clouds
82 °F
60 °F
0%
39%
Friday
May 31

Rain
84 °F
60 °F
100%
42%
Saturday
Jun 1

Rain
79 °F
64 °F
100%
75%
Sunday
Jun 2

Rain
82 °F
64 °F
100%
85%
Monday
Jun 3

Rain
76 °F
66 °F
100%
97%
Tuesday
Jun 4

Rain
83 °F
67 °F
51%
75%
Wednesday
Jun 5

Rain
84 °F
67 °F
100%
62%
Thursday
Jun 6

Rain
80 °F
62 °F
100%
46%
Friday
Jun 7

Rain
73 °F
56 °F
20%
61%
Saturday
Jun 8

Rain
79 °F
62 °F
100%
67%
Sunday
Jun 9

Rain
81 °F
64 °F
100%
61%
Monday
Jun 10

Rain
87 °F
67 °F
79%
50%
Tuesday
Jun 11

Clear
94 °F
70 °F
0%
40%
Wednesday
Jun 12

Clear
94 °F
71 °F
0%
40%
Thursday
Jun 13

Clouds
97 °F
71 °F
0%
42%
Friday
Jun 14

Rain
95 °F
67 °F
100%
41%

Temperature 8-14 Day Outlook



Precipitation 8-14 Day Outlook






About Us
Contact Us
Site Map
Search Site
Advertise With Us
   
www.SmithLake.info
THE SMITH LAKE WEBSITE

Copyright 2024, Lakes Online
Privacy    |    Legal